This is the latest recevied weather packets stored in our database for station/object KB3GVC-13. If no packets are shown the sender has not sent any weather packets the latest 1 day(s).
| Time | Temp. | Humidity | Pressure | Rain* | Wind** | Luminosity | Snow |
|---|---|---|---|---|---|---|---|
| 1778037596 | 21.67° C | 58% | 1011.5 hPa | 0 mm | 0.89 m/s, 158° | - | - |
| 1778037294 | 21.67° C | 58% | 1011.6 hPa | 0 mm | 0.89 m/s, 153° | - | - |
| 1778036991 | 21.67° C | 57% | 1011.6 hPa | 0 mm | 0.89 m/s, 127° | - | - |
| 1778036689 | 21.67° C | 57% | 1011.7 hPa | 0 mm | 1.34 m/s, 221° | - | - |
| 1778036386 | 21.67° C | 57% | 1011.7 hPa | 0 mm | 1.79 m/s, 172° | - | - |
| 1778036083 | 21.67° C | 57% | 1011.8 hPa | 0 mm | 2.24 m/s, 209° | - | - |
| 1778035779 | 21.67° C | 57% | 1011.8 hPa | 0 mm | 1.79 m/s, 154° | - | - |
| 1778035476 | 21.67° C | 56% | 1011.9 hPa | 0 mm | 0.89 m/s, 88° | - | - |
| 1778035172 | 21.67° C | 57% | 1011.9 hPa | 0 mm | 1.34 m/s, 135° | - | - |
| 1778034869 | 22.22° C | 56% | 1012.1 hPa | 0 mm | 1.34 m/s, 129° | - | - |
| 1778034566 | 22.22° C | 55% | 1011.9 hPa | 0 mm | 1.79 m/s, 161° | - | - |
| 1778034264 | 22.22° C | 55% | 1011.9 hPa | 0 mm | 1.79 m/s, 122° | - | - |
| 1778033961 | 22.22° C | 56% | 1012 hPa | 0 mm | 1.79 m/s, 205° | - | - |
| 1778033658 | 22.22° C | 55% | 1011.7 hPa | 0 mm | 1.34 m/s, 169° | - | - |
| 1778033355 | 22.22° C | 55% | 1012 hPa | 0 mm | 1.79 m/s, 176° | - | - |
| 1778033053 | 22.22° C | 55% | 1011.8 hPa | 0 mm | 0.89 m/s, 148° | - | - |
| 1778032750 | 22.22° C | 55% | 1011.7 hPa | 0 mm | 0.45 m/s, 151° | - | - |
| 1778032448 | 22.78° C | 53% | 1011.7 hPa | 0 mm | 2.24 m/s, 157° | - | - |
| 1778032144 | 22.78° C | 53% | 1011.6 hPa | 0 mm | 0.89 m/s, 167° | - | - |
| 1778031841 | 22.78° C | 53% | 1011.5 hPa | 0 mm | 0.45 m/s, 200° | - | - |
| 1778031538 | 22.78° C | 53% | 1011.5 hPa | 0 mm | 1.79 m/s, 181° | - | - |
| 1778031236 | 22.78° C | 53% | 1011.6 hPa | 0 mm | 1.79 m/s, 126° | - | - |
| 1778030931 | 22.78° C | 52% | 1011.4 hPa | 0 mm | 0.45 m/s, 148° | - | - |
| 1778030628 | 22.78° C | 52% | 1011.4 hPa | 0 mm | 0.45 m/s, 128° | - | - |
| 1778030326 | 22.78° C | 51% | 1011.2 hPa | 0 mm | 1.79 m/s, 171° | - | - |
* Rain latest hour (hover to see other rain measurements)
** Current wind speed in m/s (hover to see current wind gust speed)